RH
35 40 39 36 39 32 24 13 11 8 8 12 19 23 27 31 31 29 32 51 86 92 93 96 94 96 96 95 95 96 96 97 97 84 89 77 75 73 73 76 77 72 66
39 39 30 38 37 30 24 15 10 9 8 9 13 17 20 22 23 31 60 88 96 95 95 95 94 97 96 96 97 96 96 96 97 94 93 78 81 75 76 73 70 68 64
38 30 31 38 36 35 28 18 16 14 11 11 16 21 23 22 25 54 89 95 96 92 99 98 97 97 93 95 96 97 96 96 96 100 99 97 90 76 74 75 72 68 64
34 31 34 39 42 40 32 27 25 20 14 14 19 23 24 21 32 92 94 95 96 90 97 99 98 98 97 95 97 96 93 96 93 98 100 100 97 86 81 74 77 72 66
31 32 35 39 42 37 34 32 31 24 18 19 20 23 20 19 53 96 96 96 93 89 93 95 98 99 99 98 98 96 98 100 100 100 98 100 100 100 96 90 81 69 64
35 32 36 37 38 36 38 38 34 27 20 18 21 20 19 22 85 100 100 99 87 93 95 95 95 95 92 96 97 96 97 97 98 100 100 100 88 83 91 84 90 90 87
33 37 35 37 36 37 39 41 38 26 22 16 21 18 19 23 100 100 100 94 91 98 99 98 95 95 96 94 93 92 95 96 97 99 98 93 92 87 92 89 85 84 92
27 35 30 35 35 36 36 39 39 22 16 15 21 21 19 30 100 100 100 91 88 95 97 97 96 95 95 100 97 91 94 96 97 98 96 90 92 97 89 89 81 90 95
29 29 26 32 32 36 37 39 38 17 12 13 22 24 21 22 70 98 100 95 91 93 96 96 96 97 97 96 94 94 91 95 96 96 96 98 99 100 97 100 96 100 100
34 29 27 28 33 36 39 39 31 15 10 11 20 24 24 20 26 76 98 96 92 97 94 95 97 100 99 97 96 96 93 93 96 93 92 93 98 96 97 96 98 98 98
37 29 24 27 35 37 36 35 26 12 8 10 14 22 25 24 23 26 57 96 97 97 96 95 96 97 96 96 96 96 97 97 97 94 93 90 97 95 98 99 98 99 99
33 28 22 29 35 32 31 28 22 11 10 9 11 16 25 27 21 22 29 84 97 96 96 96 96 96 96 96 96 96 96 96 97 97 99 98 96 97 100 99 100 100 100
30 26 22 31 32 27 23 29 23 15 19 18 17 18 22 29 24 21 23 34 92 95 96 97 97 96 96 96 96 96 96 96 96 97 97 95 97 100 100 100 100 100 100
26 24 25 26 24 21 21 30 28 19 22 23 27 42 23 28 38 40 26 26 42 94 93 95 96 96 96 97 94 95 96 97 97 97 97 99 100 100 100 100 100 100 100
25 23 25 22 18 18 27 28 30 33 49 58 51 56 35 41 39 30 28 22 19 26 58 87 88 88 89 92 95 96 96 95 95 96 96 97 98 98 100 99 98 100 99
28 25 19 16 16 18 20 30 38 35 33 21 25 18 19 15 11 15 24 24 16 16 23 49 93 96 96 96 95 95 96 95 96 96 96 97 97 97 97 99 100 100 97
23 16 14 15 19 28 33 37 31 34 31 18 16 14 13 12 10 10 10 17 24 24 28 32 36 90 96 96 96 96 96 96 96 96 96 97 96 97 97 98 98 100 100
20 12 15 24 40 39 35 36 40 38 22 17 18 19 14 13 12 10 9 8 10 15 28 37 37 31 52 96 96 96 96 96 96 96 96 96 97 97 97 96 93 94 96
13 16 26 41 33 28 31 36 40 39 42 38 30 27 25 26 27 26 26 26 25 16 17 19 25 30 27 25 77 96 96 96 96 96 96 97 97 97 97 97 94 92 90
19 26 38 32 30 46 47 41 40 44 50 52 50 50 45 39 39 46 51 53 52 53 50 44 26 20 22 24 19 72 96 96 96 96 96 97 97 98 98 98 99 97 96
28 36 34 30 49 57 53 51 48 43 35 25 15 12 10 9 9 9 10 11 14 16 23 34 44 46 32 19 20 18 42 97 97 96 96 96 96 96 97 98 98 98 98
36 36 32 46 53 51 35 17 10 9 9 9 9 9 8 8 8 8 9 9 9 9 9 8 9 10 20 35 32 19 19 21 86 96 97 96 96 96 97 97 98 98 99
39 35 44 50 46 25 10 8 9 9 9 9 8 7 7 7 8 8 8 7 6 5 5 5 5 5 6 7 14 34 24 18 15 47 96 97 96 96 96 97 97 98 99
40 41 48 47 28 9 8 8 9 9 8 7 7 7 8 8 8 6 5 4 4 5 5 5 6 7 6 6 6 6 10 23 20 15 14 66 96 98 98 97 98 99 98
42 46 48 36 11 8 8 9 9 8 7 6 7 8 8 7 6 5 4 5 5 5 5 5 5 5 5 5 6 6 5 4 6 17 18 14 12 64 95 98 98 98 99
45 46 43 22 9 8 8 8 8 7 7 7 8 8 8 6 5 5 5 5 5 5 5 5 5 5 5 5 5 5 5 5 4 4 5 17 18 14 11 38 79 93 98
Wind_Speed
19 21 22 22 22 26 29 29 29 29 29 29 29 29 29 29 29 30 30 30 31 31 27 24 22 17 16 16 16 16 16 17 21 25 23 18 17 16 17 17 18 19 21
20 21 22 20 24 28 31 31 30 30 30 29 29 30 31 31 31 27 29 31 33 31 25 22 20 19 18 15 15 16 16 17 19 24 23 20 18 17 18 19 20 21 22
20 21 21 21 25 30 32 31 31 33 32 29 29 31 32 32 30 26 30 33 34 29 24 22 20 18 18 16 15 17 12 19 20 21 23 22 23 22 17 18 18 21 22
19 19 20 21 25 30 31 31 32 34 33 29 30 31 31 32 29 30 33 34 34 27 22 20 18 18 17 18 20 20 22 21 22 22 25 26 23 19 18 17 18 19 20
17 19 20 22 24 28 31 32 33 35 31 30 30 31 31 33 30 33 34 34 32 26 22 19 19 17 16 17 18 20 22 24 25 25 25 24 24 22 23 19 19 18 19
15 19 21 23 25 28 31 33 33 36 31 30 30 31 32 34 31 33 33 35 28 25 24 21 19 18 18 20 19 21 22 25 28 29 29 28 27 22 18 18 16 16 15
15 18 22 23 26 28 31 33 34 36 31 30 30 32 34 36 32 36 35 34 29 28 24 22 22 20 21 21 23 23 23 20 19 26 30 29 26 21 17 19 18 19 17
17 19 23 24 26 29 31 34 34 34 30 29 31 34 36 38 33 36 36 33 29 27 24 22 21 22 21 23 23 21 19 15 12 15 22 23 22 19 15 17 16 16 16
20 22 23 24 27 29 31 33 34 33 30 29 33 35 38 38 36 38 37 36 33 28 24 22 20 21 21 19 18 18 16 13 9 11 13 17 16 17 16 17 19 19 19
21 23 23 24 26 29 31 31 32 31 29 32 33 36 38 39 39 38 37 38 36 31 27 24 21 19 18 16 14 14 15 12 9 8 5 8 9 13 17 20 17 18 20
19 21 23 24 26 28 29 30 31 31 32 33 35 37 39 40 40 38 37 37 35 31 29 29 25 20 16 14 11 11 11 9 7 6 4 4 10 13 16 16 20 21 22
19 21 23 24 27 28 28 29 31 33 35 36 38 39 40 41 41 39 39 37 34 31 31 30 27 22 18 16 14 13 9 7 4 4 2 8 10 12 18 21 20 21 22
18 21 22 24 26 27 28 29 31 34 37 38 39 40 41 42 42 41 42 41 42 36 34 31 28 27 25 22 19 18 16 16 12 7 1 5 8 11 14 19 19 19 19
18 21 23 25 26 26 26 26 28 32 34 35 36 37 38 40 42 43 44 46 46 45 44 43 41 36 34 30 25 22 23 21 20 16 9 2 7 10 13 15 18 19 20
19 21 23 25 25 24 24 24 24 27 28 29 31 33 37 39 40 40 43 47 47 47 53 53 51 49 45 40 35 31 28 26 25 22 17 9 2 10 15 16 17 18 23
21 23 24 25 24 23 22 19 18 23 26 26 28 31 32 34 37 40 43 45 46 51 58 61 61 57 53 50 46 41 35 31 30 28 25 18 8 4 10 16 21 22 23
21 22 23 24 24 24 23 24 24 23 25 27 28 30 33 35 39 41 44 46 49 56 62 62 62 62 59 55 50 45 42 37 36 34 33 26 15 5 6 14 20 23 24
20 21 22 23 23 23 24 26 27 28 31 32 32 33 34 37 40 43 46 48 56 61 61 62 63 63 63 62 58 53 47 44 42 41 40 35 25 15 7 10 16 21 23
19 20 21 21 22 24 27 29 29 30 32 35 38 38 38 41 43 45 49 54 57 58 60 61 62 63 65 67 65 58 53 50 47 48 46 42 35 25 15 8 11 15 18
19 19 19 19 21 25 27 29 31 33 35 37 40 42 43 45 49 51 52 53 55 56 57 59 61 63 65 67 66 64 62 58 54 53 52 48 42 34 27 18 13 15 19
17 17 17 18 21 23 25 27 30 32 33 35 36 37 39 42 44 46 48 50 52 54 56 58 60 62 64 66 65 67 66 63 60 56 54 51 48 43 36 29 22 18 18
15 15 15 18 19 20 22 24 27 29 30 31 33 35 37 40 42 45 46 48 49 50 52 54 57 59 61 62 63 65 66 66 64 62 59 55 52 50 46 40 34 28 25
13 12 14 16 17 18 20 22 25 27 28 30 31 33 36 38 40 41 43 44 47 49 51 53 55 56 57 58 59 61 63 64 62 62 61 60 58 57 54 51 46 39 33
10 10 12 14 15 17 19 20 22 24 25 27 29 31 33 35 37 38 40 42 44 46 49 52 54 55 57 58 58 58 58 58 59 61 61 61 61 61 62 60 58 47 44
8 8 10 12 13 15 16 18 20 21 23 25 27 28 30 32 34 36 37 39 41 44 47 50 52 54 56 57 57 57 57 56 58 59 60 60 61 61 62 61 60 59 55
6 6 7 10 11 13 13 15 17 19 20 23 24 26 28 29 32 34 36 38 40 42 44 47 49 51 53 55 55 55 56 56 57 58 58 59 60 60 60 58 56 56 54
Wind_Direction
357 355 355 356 359 355 354 351 347 344 342 341 339 338 337 335 330 324 326 334 337 336 335 330 327 323 310 299 294 291 284 273 270 274 277 281 278 268 262 257 250 242 241
357 354 355 359 358 357 357 357 355 352 350 347 345 343 341 339 335 330 337 345 341 338 337 332 329 324 318 308 300 291 283 293 287 283 280 273 279 276 269 255 248 245 244
354 353 358 359 358 359 359 359 358 355 353 351 349 346 344 344 342 345 351 344 340 337 335 330 329 326 321 318 308 303 296 289 281 279 278 275 276 279 262 254 249 242 243
354 356 358 359 357 357 358 359 358 356 355 354 351 350 348 348 351 357 351 342 338 337 333 332 330 326 323 322 311 296 293 287 283 278 272 270 271 269 267 255 245 243 243
355 357 2 357 356 356 358 359 357 356 358 355 353 354 353 354 358 354 347 341 340 340 339 336 333 328 317 310 306 302 295 287 281 276 272 268 267 263 258 264 257 244 237
359 1 360 359 356 357 357 357 357 358 359 357 357 358 359 358 2 352 350 343 347 346 343 339 333 328 327 322 313 305 297 285 276 270 269 266 269 267 263 260 244 232 238
357 0 359 358 357 356 355 355 358 359 359 0 2 4 4 4 0 352 352 351 353 353 345 339 335 331 328 323 322 314 308 298 275 262 263 264 269 268 258 254 231 225 225
3 1 359 357 356 355 354 356 358 1 3 4 8 10 10 7 1 357 352 356 358 355 348 344 337 332 330 330 320 318 315 312 292 271 259 263 267 263 246 238 226 229 239
7 1 358 357 356 355 356 357 359 2 6 13 15 13 14 11 7 0 356 358 359 358 355 353 346 337 336 327 321 320 321 323 306 299 276 250 254 246 230 217 223 223 234
6 0 358 358 357 358 356 357 1 5 10 17 18 19 17 15 13 5 2 2 1 359 3 1 357 347 338 333 330 332 331 330 323 314 297 235 244 225 213 212 217 227 228
1 358 358 360 0 359 357 359 2 7 14 18 20 21 20 18 17 13 10 7 4 4 8 6 6 1 354 351 350 356 347 328 309 305 283 258 227 220 208 222 232 235 234
357 358 1 1 0 359 359 1 4 9 15 17 18 20 19 19 20 18 20 20 17 16 16 17 16 17 17 19 19 18 14 15 6 272 279 263 238 233 232 220 234 231 230
359 2 4 4 2 2 2 4 6 10 14 15 15 16 17 19 19 21 24 26 24 26 28 26 26 27 28 29 29 30 33 36 32 25 344 243 254 247 224 221 225 232 229
5 8 8 8 7 5 6 9 9 11 13 14 15 16 16 19 19 19 23 26 26 27 32 32 31 32 33 33 32 33 35 36 32 26 26 306 227 229 224 224 222 220 226
10 11 11 11 11 14 10 11 15 18 18 14 16 18 17 19 20 27 28 29 28 30 33 33 32 31 30 29 29 30 31 32 31 30 27 27 201 221 224 224 222 220 223
13 13 13 13 15 16 19 26 25 25 25 26 26 25 29 30 30 31 33 34 32 35 38 33 30 28 26 23 23 25 30 30 30 29 28 30 35 189 210 221 216 219 221
16 16 18 18 17 16 17 22 30 43 39 34 34 32 34 33 34 33 34 37 34 37 37 34 32 28 25 25 24 25 25 29 31 30 27 31 39 80 193 207 208 213 216
18 21 22 21 21 24 30 34 35 36 37 40 40 37 37 37 37 35 35 36 36 38 37 33 31 30 29 26 26 26 28 30 32 32 30 31 42 61 125 197 210 208 208
25 27 26 25 33 39 42 43 44 43 39 37 39 41 41 41 41 39 38 37 35 35 35 34 32 31 31 31 27 29 31 34 34 33 32 31 43 56 84 142 187 194 196
30 31 32 39 47 48 48 48 50 49 45 43 42 39 38 40 39 39 38 37 37 35 34 34 32 31 32 32 30 30 33 36 39 38 35 39 46 55 71 101 140 163 174
34 35 42 51 54 54 54 53 52 52 49 46 44 41 40 40 38 38 37 36 35 34 34 34 33 32 32 31 31 32 34 35 39 43 43 44 46 51 64 79 108 140 155
40 45 55 58 60 59 54 53 52 51 49 47 46 44 42 42 41 39 38 38 37 37 35 35 35 33 32 31 30 32 34 35 37 41 47 51 51 52 58 70 85 112 133
47 56 62 65 66 64 58 56 54 52 50 47 45 44 43 42 40 40 39 38 37 37 37 36 36 35 35 34 33 34 35 37 38 41 42 48 54 55 55 60 68 84 101
57 66 71 73 73 67 63 59 55 52 50 48 46 44 44 43 41 39 39 38 38 37 37 37 36 35 35 35 35 35 35 37 40 43 45 45 49 54 60 62 67 74 81
70 75 82 86 81 71 64 61 56 54 51 50 48 45 43 43 42 41 40 38 37 37 37 37 35 34 34 34 33 34 36 36 38 41 44 48 48 52 55 58 63 66 68
81 85 94 98 86 77 66 60 57 53 51 49 47 45 42 40 40 40 39 37 36 36 36 35 35 34 34 34 33 33 34 35 38 39 41 42 46 49 53 55 57 61 65